Location: *
(43.6428°N, 11.5461°E)
Time: 23:40:46
(UTC+00:00)

Cosmos 2016 Rocket - Pass Details

Date: 21 October 2019
Orbit: 948 x 1000 km, 83.0° (Epoch: 14 November)

Event Time Altitude Azimuth Distance (km) Brightness Sun altitude
Rises 18:04:42 0° 357° (N) 3,688 7.1 -19.4°
Reaches altitude 10° 18:07:20 10° 3° (N) 2,744 6.4 -19.8°
Maximum altitude 18:13:22 47° 76° (ENE) 1,297 4.2 -20.9°
Enters shadow 18:15:26 35° 122° (ESE) 1,540 4.6 -21.3°
